WS Maaseik 1 Meer informatie WS Maaseik 1


WS Maaseik 2 Meer informatie WS Maaseik 2


Regen radar Meer informatie rain snow radar


Bezoek onze andere website:

Vorige versie
weerstation Maaseik


Bezoek ook eens deze sites:

Weerstation Geleen



We konden geen weer-waarchuwingen ophalen. Ga rechtstreeks naar de Meteoalarm site : www.meteoalarm.eu en controleer daar .

15 daagse weersverwachting Nantes (FR)

  • Overzicht
  • Per uur
  • 15 dagen
  • Extra
  • Vergelijk
  • Kaarten
  • Dagkaart
  • Meer »
  • Info
  • Statistieken
  • Directe link
    Temp 6h Neerslag Wind  
 07:03     21:19    Daglengte: 14:16 Vandaag
14:00
22°
 
6
20:00
20°
 
5
 07:05     21:17    Daglengte: 14:12 Morgen
02:00
19°
3.1 mm
4
08:00
19°
 
4
14:00
25°
 
5
20:00
22°
 
5
 07:06     21:15    Daglengte: 14:09 Dinsdag 16 Aug
02:00
19°
 
3
08:00
18°
0.5 mm
4
14:00
23°
1.6 mm
6
20:00
22°
0.6 mm
5
 07:07     21:14    Daglengte: 14:07 Woensdag 17 Aug
02:00
18°
3.2 mm
3
warningclass
08:00
17°
3.9 mm
2
warningclass
Locatie info
Region: Pays de la Loire
Latitude: 47.2181°N
Longitude: -1.5531°E
19 masl
Postcode: 44000
Temp/Neerslag /Baro Onweer/Dauwpunt
    Temp Baro 1h Neerslag Dauwpunt Wind UV Bewolking  
 07:03     21:19    Daglengte: 14:16 Vandaag
14:00
22°
1007.8 hPa
48%
17.8°
6
Windvlaag: 5 m/s
66%
15:00
23°
1007.7 hPa
15%
16.2°
6
Windvlaag: 4.6 m/s
33%
16:00
23°
1007.7 hPa
21%
16.3°
6
Windvlaag: 4.5 m/s
27%
17:00
23°
1007.4 hPa
60%
15.9°
6
Windvlaag: 4.5 m/s
13%
18:00
22°
1007.3 hPa
74%
15.7°
6
Windvlaag: 5.1 m/s
34%
19:00
21°
1007.1 hPa
69%
16.0°
6
Windvlaag: 5.9 m/s
22%
20:00
20°
1007.0 hPa
66%
16.8°
5
Windvlaag: 5.6 m/s
54%
21:00
19°
1007.3 hPa
78%
17.2°
5
Windvlaag: 5.5 m/s
79%
22:00
19°
1007.4 hPa
78%
17.0°
4
Windvlaag: 5 m/s
83%
23:00
19°
1007.2 hPa 0.8 mm
78%
16.9°
4
Windvlaag: 4.6 m/s
86%
 07:05     21:17    Daglengte: 14:12 Morgen
00:00
19°
1006.8 hPa 0.9 mm
78%
17.0°
4
Windvlaag: 5.5 m/s
86%
01:00
19°
1006.8 hPa 1.1 mm
78%
16.9°
4
Windvlaag: 4.4 m/s
76%
02:00
19°
1006.6 hPa 0.4 mm
78%
16.9°
4
Windvlaag: 4.1 m/s
66%
03:00
19°
1006.5 hPa
25%
16.8°
5
Windvlaag: 3.9 m/s
74%
04:00
19°
1006.2 hPa
16%
16.6°
5
Windvlaag: 3.6 m/s
74%
05:00
19°
1006.1 hPa
14%
16.3°
5
Windvlaag: 3 m/s
65%
06:00
19°
1005.8 hPa
14%
16.3°
4
Windvlaag: 2.6 m/s
68%
07:00
19°
1005.8 hPa
14%
16.0°
4
Windvlaag: 2.4 m/s
54%
08:00
19°
1006.0 hPa
14%
16.0°
4
Windvlaag: 2.8 m/s
67%
09:00
20°
1006.2 hPa
14%
16.2°
4
Windvlaag: 3.2 m/s
47%
10:00
21°
1006.4 hPa
14%
15.7°
5
Windvlaag: 3.7 m/s
62%
11:00
22°
1006.6 hPa
14%
15.5°
5
Windvlaag: 3.6 m/s
77%
12:00
22°
1006.7 hPa
14%
15.1°
5
Windvlaag: 4 m/s
70%
13:00
24°
1006.7 hPa
14%
14.9°
5
Windvlaag: 4.4 m/s
21%
14:00
25°
1006.6 hPa
14%
14.5°
5
Windvlaag: 4.5 m/s
27%
15:00
25°
1006.5 hPa
14%
14.2°
5
Windvlaag: 4.7 m/s
19%
16:00
24°
1006.3 hPa
15%
13.2°
6
Windvlaag: 5.2 m/s
68%
17:00
24°
1006.3 hPa
18%
13.8°
5
Windvlaag: 5.3 m/s
54%
18:00
24°
1006.2 hPa
14%
14.6°
5
Windvlaag: 5 m/s
45%
19:00
23°
1006.2 hPa
14%
14.4°
5
Windvlaag: 4.7 m/s
70%
20:00
22°
1006.3 hPa
14%
14.8°
5
Windvlaag: 5.5 m/s
73%
21:00
21°
1006.3 hPa
14%
15.4°
4
Windvlaag: 5.5 m/s
63%
22:00
20°
1006.9 hPa
14%
15.5°
4
Windvlaag: 4.7 m/s
52%
23:00
19°
1007.0 hPa
14%
15.8°
3
Windvlaag: 4.3 m/s
65%
 07:06     21:15    Daglengte: 14:09 Dinsdag 16 Aug
00:00
19°
1007.2 hPa
14%
16.1°
3
Windvlaag: 3.7 m/s
64%
01:00
19°
1007.0 hPa
14%
16.7°
3
Windvlaag: 4.1 m/s
78%
02:00
19°
1006.8 hPa
14%
16.9°
3
Windvlaag: 4.8 m/s
39%
03:00
19°
1006.2 hPa
14%
16.6°
3
Windvlaag: 4.7 m/s
76%
04:00
19°
1006.1 hPa
23%
15.9°
4
Windvlaag: 5.1 m/s
65%
05:00
19°
1005.8 hPa
72%
16.5°
4
Windvlaag: 6.4 m/s
70%
06:00
18°
1005.5 hPa
82%
16.9°
4
Windvlaag: 6.8 m/s
82%
07:00
18°
1005.5 hPa
82%
16.8°
3
Windvlaag: 6.8 m/s
78%
08:00
18°
1005.7 hPa 0.5 mm
82%
16.8°
4
Windvlaag: 8.9 m/s
82%
09:00
19°
1005.8 hPa 0.3 mm
82%
17.0°
4
Windvlaag: 8.7 m/s
84%
10:00
19°
1006.2 hPa
80%
17.0°
5
Windvlaag: 9.1 m/s
74%
11:00
20°
1006.4 hPa 0.3 mm
84%
15.0°
5
Windvlaag: 9.6 m/s
76%
12:00
21°
1006.3 hPa
84%
14.5°
6
Windvlaag: 8.9 m/s
88%
13:00
22°
1006.4 hPa 0.5 mm
97%
14.0°
6
Windvlaag: 9.3 m/s
80%
14:00
23°
1006.4 hPa 0.5 mm
100%
13.3°
6
Windvlaag: 10.2 m/s
47%
15:00
24°
1006.2 hPa 0.6 mm
82%
12.2°
6
Windvlaag: 10.4 m/s
52%
16:00
24°
1006.0 hPa
22%
10.2°
6
Windvlaag: 10.4 m/s
34%
17:00
24°
1005.6 hPa
27%
10.0°
6
Windvlaag: 10.4 m/s
6%
18:00
24°
1005.7 hPa
75%
12.3°
6
Windvlaag: 10.4 m/s
14%
19:00
24°
1005.5 hPa
28%
13.0°
6
Windvlaag: 10.2 m/s
19%
20:00
22°
1005.6 hPa
29%
13.6°
5
Windvlaag: 9.4 m/s
26%
21:00
21°
1006.0 hPa
77%
16.3°
4
Windvlaag: 8.2 m/s
13%
22:00
19°
1006.8 hPa 0.7 mm
93%
17.3°
3
Windvlaag: 7.8 m/s
19%
23:00
18°
1007.0 hPa 0.8 mm
100%
17.0°
3
Windvlaag: 7.5 m/s
57% warningclass
 07:07     21:14    Daglengte: 14:07 Woensdag 17 Aug
00:00
18°
1006.8 hPa 1.1 mm
100%
16.7°
3
Windvlaag: 6.4 m/s
48% warningclass
01:00
18°
1006.9 hPa 0.7 mm
96%
16.3°
3
Windvlaag: 5.2 m/s
74% warningclass
02:00
18°
1006.9 hPa
78%
16.4°
3
Windvlaag: 4.9 m/s
58%
03:00
17°
1006.3 hPa
21%
16.4°
3
Windvlaag: 4.8 m/s
83%
04:00
17°
1006.3 hPa 0.7 mm
85%
16.3°
3
Windvlaag: 4.3 m/s
98% warningclass
05:00
17°
1006.2 hPa 0.6 mm
100%
16.3°
2
Windvlaag: 3.7 m/s
100% warningclass
06:00
17°
1005.2 hPa 1.0 mm
100%
16.6°
2
Windvlaag: 2.4 m/s
100% warningclass
07:00
17°
1005.4 hPa 0.9 mm
100%
17.2°
2
Windvlaag: 2 m/s
99% warningclass
08:00
17°
1005.7 hPa 0.7 mm
100%
17.2°
2
Windvlaag: 1.3 m/s
93% warningclass
09:00
18°
1006.0 hPa 0.7 mm
100%
17.7°
2
Windvlaag: 0.9 m/s
88% warningclass
10:00
18°
1006.1 hPa 0.9 mm
100%
17.8°
2
Windvlaag: 1.6 m/s
25% warningclass
11:00
20°
1006.5 hPa 0.8 mm
100%
17.0°
2
Windvlaag: 2.2 m/s
68% warningclass
12:00
21°
1006.7 hPa 0.8 mm
100%
14.5°
1
Windvlaag: 1.5 m/s
43% warningclass
13:00
22°
1006.7 hPa
100%
13.8°
2
Windvlaag: 2.3 m/s
49%
Temp/Neerslag /Baro Onweer/Dauwpunt
    Temp Baro Neerslag Dauwpunt Wind Bewolking  
 07:03     21:19    Daglengte: 14:16 Vandaag
14:00
22°
1007.8 hPa   17.8°
6
66%
17:00
23°
1007.4 hPa   15.9°
6
13%
20:00
20°
1007.0 hPa   16.8°
5
54%
23:00
19°
1007.2 hPa 0.8 mm 16.9°
4
86%
 07:05     21:17    Daglengte: 14:12 Morgen
02:00
19°
1006.6 hPa 2.3 mm 16.9°
4
66%
05:00
19°
1006.1 hPa   16.3°
5
65%
08:00
19°
1006.0 hPa   16.0°
4
67%
11:00
22°
1006.6 hPa   15.5°
5
77%
14:00
25°
1006.6 hPa   14.5°
5
27%
17:00
24°
1006.3 hPa   13.8°
5
54%
20:00
22°
1006.3 hPa   14.8°
5
73%
23:00
19°
1007.0 hPa   15.8°
3
65%
 07:06     21:15    Daglengte: 14:09 Dinsdag 16 Aug
02:00
19°
1006.8 hPa   16.9°
3
39%
05:00
19°
1005.8 hPa   16.5°
4
70%
08:00
18°
1005.7 hPa 0.5 mm 16.8°
4
82%
11:00
20°
1006.4 hPa 0.6 mm 15.0°
5
76%
14:00
23°
1006.4 hPa 1.0 mm 13.3°
6
47%
17:00
24°
1005.6 hPa 0.6 mm 10.0°
6
6%
20:00
22°
1005.6 hPa   13.6°
5
26%
23:00
18°
1007.0 hPa 1.5 mm 17.0°
3
57% warningclass
 07:07     21:14    Daglengte: 14:07 Woensdag 17 Aug
02:00
18°
1006.9 hPa 1.8 mm 16.4°
3
58% warningclass
05:00
17°
1006.2 hPa 1.3 mm 16.3°
2
100% warningclass
08:00
17°
1005.7 hPa 2.6 mm 17.2°
2
93% warningclass
11:00
20°
1006.5 hPa 2.4 mm 17.0°
2
68% warningclass
14:00
23°
1007.0 hPa 2.4 mm 13.8°
2
39%
17:00
18°
1009.4 hPa 22.5 mm 16.1°
6
1%
20:00
19°
1010.0 hPa 22.9 mm 16.0°
3
1%
23:00
16°
1012.3 hPa 22.9 mm 14.6°
3
1%
 07:09     21:12    Daglengte: 14:03 Donderdag 18 Aug
02:00
15°
1012.9 hPa 23.1 mm 13.8°
3
1%
05:00
14°
1013.4 hPa 23.3 mm 13.5°
3
1%
08:00
15°
1014.2 hPa 23.3 mm 13.3°
3
1%
11:00
21°
1015.2 hPa 23.3 mm 14.8°
4
0%
14:00
26°
1014.8 hPa 23.3 mm 13.7°
4
0%
17:00
25°
1015.0 hPa 23.3 mm 15.3°
7
0%
20:00
23°
1016.2 hPa 23.5 mm 16.0°
6
0%
23:00
18°
1018.3 hPa 23.5 mm 15.5°
6
0%
 07:10     21:10    Daglengte: 14:00 Vrijdag 19 Aug
02:00
15°
1019.8 hPa 23.5 mm 14.7°
4
0%
05:00
14°
1019.8 hPa 23.5 mm 13.5°
3
1%
08:00
15°
1020.7 hPa 23.5 mm 13.0°
2
1%
11:00
21°
1021.3 hPa 23.5 mm 11.8°
3
1%
14:00
25°
1020.7 hPa 23.5 mm 14.9°
4
1%
17:00
25°
1020.5 hPa 23.9 mm 15.9°
5
1%
20:00
23°
1020.9 hPa 24.2 mm 15.6°
5
1%
23:00
18°
1022.3 hPa 24.2 mm 17.1°
3
0%
 07:11     21:08    Daglengte: 13:57 Zaterdag 20 Aug
02:00
16°
1023.1 hPa 24.2 mm 15.6°
4
0%
05:00
16°
1023.6 hPa 24.2 mm 13.1°
3
1%
08:00
14°
1024.4 hPa 24.2 mm 12.0°
3
0%
11:00
21°
1025.0 hPa 24.2 mm 12.1°
3
0%
14:00
25°
1024.3 hPa 24.2 mm 9.2°
3
0%
17:00
28°
Voelt als: 26.9°
1022.9 hPa 24.2 mm 8.5°
3
0%
20:00
25°
1022.9 hPa 24.2 mm 8.1°
4
0%
23:00
18°
1024.3 hPa 24.2 mm 11.5°
5
0%
 07:13     21:07    Daglengte: 13:54 Zondag 21 Aug
02:00
15°
1024.3 hPa 24.2 mm 10.7°
4
0%
05:00
14°
1023.9 hPa 24.2 mm 8.9°
3
0%
08:00
14°
1023.8 hPa 24.2 mm 8.7°
3
0%
11:00
23°
1023.3 hPa   8.9°
3
1%
14:00
28°
Voelt als: 27.1°
1021.7 hPa 48.4 mm 8.3°
3
1%
20:00
26°
1019.0 hPa 48.4 mm 8.7°
4
1%
 07:14     21:05    Daglengte: 13:51 Maandag 22 Aug
02:00
16°
1018.7 hPa 48.4 mm 10.2°
3
1%
08:00
16°
1017.7 hPa 48.4 mm 8.3°
3
1%
14:00
28°
Voelt als: 27.1°
1015.9 hPa 48.4 mm 6.8°
3
1%
20:00
26°
Voelt als: 25.9°
1013.4 hPa 48.4 mm 8.0°
5
0%
 07:15     21:03    Daglengte: 13:48 Dinsdag 23 Aug
02:00
17°
1013.5 hPa 48.4 mm 10.1°
3
1%
08:00
18°
1013.0 hPa 48.4 mm 10.3°
2
1%
14:00
27°
Voelt als: 26.4°
1012.2 hPa 48.4 mm 7.9°
4
1%
20:00
23°
1012.2 hPa 48.4 mm 15.7°
5
1%
 07:16     21:01    Daglengte: 13:45 Woensdag 24 Aug
02:00
17°
1013.5 hPa 48.4 mm 17.0°
2
1%
08:00
17°
1016.8 hPa   12.3°
2
35%
14:00
29°
Voelt als: 28.1°
1016.5 hPa   12.2°
1
32%
20:00
27°
1015.8 hPa 0.1 mm 12.5°
2
37%
 07:18     20:59    Daglengte: 13:41 Donderdag 25 Aug
02:00
18°
1017.4 hPa 0.1 mm 13.0°
3
31%
08:00
17°
1017.7 hPa 0.1 mm 12.5°
2
25%
14:00
29°
Voelt als: 28.1°
1017.6 hPa 0.2 mm 11.8°
1
39%
20:00
27°
Voelt als: 26.7°
1016.8 hPa 0.2 mm 12.0°
3
43%
 07:19     20:57    Daglengte: 13:38 Vrijdag 26 Aug
02:00
18°
1018.3 hPa 0.2 mm 12.3°
3
29%
08:00
16°
1018.5 hPa   12.2°
2
39%
14:00
29°
Voelt als: 28.4°
1018.1 hPa 0.1 mm 10.9°
2
39%
20:00
27°
Voelt als: 26.8°
1017.1 hPa   12.5°
3
40%
 07:20     20:55    Daglengte: 13:35 Zaterdag 27 Aug
02:00
18°
1018.9 hPa   13.6°
3
28%
08:00
17°
1019.0 hPa   13.0°
2
38%
14:00
29°
Voelt als: 28.1°
1018.5 hPa 0.1 mm 12.2°
2
36%
20:00
27°
Voelt als: 26.8°
1017.2 hPa 0.2 mm 11.4°
3
38%
 07:22     20:53    Daglengte: 13:31 Zondag 28 Aug
02:00
18°
1018.8 hPa 0.3 mm 12.0°
3
29%
08:00
16°
1018.6 hPa 0.1 mm 11.5°
2
34%
14:00
28°
Voelt als: 27.5°
1018.0 hPa 0.3 mm 11.2°
2
41%
20:00
26°
1017.1 hPa 0.4 mm 11.7°
3
43%
 07:23     20:52    Daglengte: 13:29 Maandag 29 Aug
02:00
18°
1018.8 hPa 0.2 mm 12.4°
3
39%
08:00
16°
1018.7 hPa   11.8°
3
32%
  CAPE Lifted Index Hail Supercell Tornado SRH 3km CL BTM PRES CL TOP PRES Swiss DWD icon SMHI TS
 07:03     21:19    Daglengte: 14:16 Vandaag
14:00 392 J/kg -2.4 K 0 % 0 % 0 % 0 m²/s² 0 0 1.5 3
15:00 307 J/kg -2.0 K 0 % 0 % 0 % 0 m²/s² 0 0 0.76 3
16:00 298 J/kg -2.2 K 0 % 0 % 0 % 0 m²/s² 0 0 0.56 3
17:00 358 J/kg -2.6 K 0 % 0 % 0 % 0 m²/s² 0 0 0.16 2
18:00 245 J/kg -2.1 K 0 % 0 % 0 % 0 m²/s² 0 0 0.99 3
19:00 237 J/kg -2.1 K 0 % 0 % 0 % 0 m²/s² 0 0 1.62 2
20:00 109 J/kg -1.4 K 0 % 0 % 0 % 0 m²/s² 0 0 2.83 3
21:00 194 J/kg -1.7 K 0 % 0 % 0 % 0 m²/s² 0 0 3.22 61
22:00 232 J/kg -1.5 K 0 % 0 % 0 % 0 m²/s² 0 0 2.04 61
23:00 271 J/kg -1.4 K 0 % 0 % 0 % 0 m²/s² 0 0 0.25 61
 07:05     21:17    Daglengte: 14:12 Morgen
00:00 313 J/kg -1.3 K 0 % 0 % 0 % 0 m²/s² 0 0 -0.55 80
01:00 302 J/kg -0.8 K 0 % 0 % 0 % 0 m²/s² 0 0 -0.62 61
02:00 251 J/kg -0.3 K 0 % 0 % 0 % 0 m²/s² 0 0 0.18 80
03:00 124 J/kg 0.5 K 0 % 0 % 0 % 0 m²/s² 0 0 1.37 3
04:00 88 J/kg 0.7 K 0 % 0 % 0 % 0 m²/s² 0 0 1.81 3
05:00 61 J/kg 0.7 K 0 % 0 % 0 % 0 m²/s² 0 0 2.08 3
06:00 19 J/kg 1.1 K 0 % 0 % 0 % 0 m²/s² 0 0 2.54 3
07:00 2 J/kg 1.7 K 0 % 0 % 0 % 0 m²/s² 0 0 3.08 3
08:00 9 J/kg 1.5 K 0 % 0 % 0 % 0 m²/s² 0 0 3.3 3
09:00 0 J/kg 0.8 K 0 % 0 % 0 % 0 m²/s² 0 0 2.9 3
10:00 22 J/kg -0.5 K 0 % 0 % 0 % 0 m²/s² 0 0 1.42 3
11:00 104 J/kg -0.7 K 0 % 0 % 0 % 0 m²/s² 0 0 0.95 3
12:00 170 J/kg -1.3 K 0 % 0 % 0 % 0 m²/s² 0 0 0.08 3
13:00 266 J/kg -1.8 K 0 % 0 % 0 % 0 m²/s² 0 0 -0.6 2
14:00 246 J/kg -1.6 K 0 % 0 % 0 % 0 m²/s² 0 0 -0.43 2
15:00 241 J/kg -1.4 K 0 % 0 % 0 % 0 m²/s² 0 0 -0.44 2
16:00 103 J/kg 0.1 K 0 % 0 % 0 % 0 m²/s² 0 0 1.06 3
17:00 194 J/kg -1.0 K 0 % 0 % 0 % 0 m²/s² 0 0 -0.19 3
18:00 113 J/kg -0.3 K 0 % 0 % 0 % 0 m²/s² 0 0 0.42 3
19:00 17 J/kg 0.8 K 0 % 0 % 0 % 0 m²/s² 0 0 1.79 3
20:00 0 J/kg 1.1 K 0 % 0 % 0 % 0 m²/s² 0 0 2.75 3
21:00 52 J/kg 0.4 K 0 % 0 % 0 % 0 m²/s² 0 0 2.62 3
22:00 156 J/kg -0.3 K 0 % 0 % 0 % 0 m²/s² 0 0 2.52 3
23:00 176 J/kg -0.2 K 0 % 0 % 0 % 0 m²/s² 0 0 3.61 3
 07:06     21:15    Daglengte: 14:09 Dinsdag 16 Aug
00:00 202 J/kg 0.3 K 0 % 0 % 0 % 0 m²/s² 0 0 2.52 3
01:00 205 J/kg 0.2 K 0 % 0 % 0 % 0 m²/s² 0 0 1.19 3
02:00 233 J/kg -0.2 K 0 % 0 % 0 % 0 m²/s² 0 0 0.49 3
03:00 303 J/kg -0.4 K 0 % 0 % 0 % 0 m²/s² 0 0 0.26 3
04:00 361 J/kg -1.1 K 0 % 0 % 0 % 0 m²/s² 0 0 -0.83 3
05:00 427 J/kg -1.4 K 0 % 0 % 0 % 0 m²/s² 0 0 -1.22 3
06:00 488 J/kg -1.5 K 0 % 0 % 0 % 0 m²/s² 0 0 -1.08 61
07:00 496 J/kg -1.9 K 0 % 0 % 0 % 0 m²/s² 0 0 -1.39 3
08:00 247 J/kg -1.0 K 0 % 0 % 0 % 0 m²/s² 0 0 0.35 61
09:00 562 J/kg -2.5 K 0 % 0 % 0 % 0 m²/s² 0 0 0.23 61
10:00 755 J/kg -3.7 K 0 % 0 % 0 % 0 m²/s² 0 0 0.17 3
11:00 829 J/kg -3.5 K 0 % 0 % 0 % 0 m²/s² 0 0 -1.88 3
12:00 740 J/kg -3.1 K 0 % 0 % 0 % 0 m²/s² 0 0 -0.61 3
13:00 874 J/kg -3.4 K 0 % 0 % 0 % 0 m²/s² 0 0 -0.55 2
14:00 850 J/kg -3.5 K 0 % 0 % 0 % 0 m²/s² 0 0 -0.8 3
15:00 560 J/kg -2.5 K 0 % 0 % 0 % 0 m²/s² 0 0 -0.37 3
16:00 365 J/kg -1.8 K 0 % 0 % 0 % 0 m²/s² 0 0 0.18 3
17:00 288 J/kg -1.5 K 0 % 0 % 0 % 0 m²/s² 0 0 0.12 2
18:00 431 J/kg -1.7 K 0 % 0 % 0 % 0 m²/s² 0 0 0.43 2
19:00 512 J/kg -1.8 K 0 % 0 % 0 % 0 m²/s² 0 0 0.21 2
20:00 577 J/kg -2.2 K 0 % 0 % 0 % 0 m²/s² 0 0 -0.19 2
21:00 702 J/kg -2.8 K 0 % 0 % 0 % 0 m²/s² 0 0 -0.88 2
22:00 913 J/kg -3.7 K 0 % 0 % 0 % 0 m²/s² 0 0 -1.96 2
23:00 987 J/kg -4.3 K 0 % 0 % 0 % 0 m²/s² 0 0 -2.5 95
 07:07     21:14    Daglengte: 14:07 Woensdag 17 Aug
00:00 957 J/kg -4.3 K 0 % 0 % 0 % 0 m²/s² 0 0 -2.68 80
01:00 866 J/kg -4.1 K 0 % 0 % 0 % 0 m²/s² 0 0 -2.93 3
02:00 918 J/kg -4.2 K 0 % 0 % 0 % 0 m²/s² 0 0 -3.12 3
03:00 933 J/kg -4.1 K 0 % 0 % 0 % 0 m²/s² 0 0 -2.6 3
04:00 1005 J/kg -4.5 K 0 % 0 % 0 % 0 m²/s² 0 0 -2.82 3
05:00 1016 J/kg -4.4 K 0 % 0 % 0 % 0 m²/s² 0 0 -2.6 61
06:00 959 J/kg -4.5 K 0 % 0 % 0 % 0 m²/s² 0 0 -2.34 80
07:00 837 J/kg -3.9 K 0 % 0 % 0 % 0 m²/s² 0 0 -2.16 80
08:00 533 J/kg -3.6 K 0 % 0 % 0 % 0 m²/s² 0 0 -2.28 3
09:00 442 J/kg -3.4 K 0 % 0 % 0 % 0 m²/s² 0 0 -2.38 3
10:00 690 J/kg -3.5 K 0 % 0 % 0 % 0 m²/s² 0 0 -2.75 80
11:00 1067 J/kg -4.0 K 0 % 0 % 0 % 0 m²/s² 0 0 -3.25 3
12:00 1138 J/kg -4.1 K 0 % 0 % 0 % 0 m²/s² 0 0 -3.02 3
13:00 1016 J/kg -3.6 K 0 % 0 % 0 % 0 m²/s² 0 0 -2.25 3
Temp Baro Wind Neerslag
  EWN Forecast EWN WRFDA DWD ICON FMI HIRLAM MET Norway GFS
 07:03     21:19    Daglengte: 14:16 Vandaag
14:00 21.9° 1007.8 hPa 5.6 m/s 0.0 mm 25.7° 1007.6 hPa 6.8 m/s 0.1 mm 24.2° 1007.6 hPa 5.6 m/s 0.1 mm 21.0° 1008.3 hPa 6.1 m/s 0.0 mm 27.2° 1007.5 hPa 5.7 m/s
17:00 22.6° 1007.4 hPa 5.9 m/s 0.0 mm 24.4° 1007.0 hPa 7.6 m/s 0.2 mm 24.4° 1007.5 hPa 5.6 m/s 0.0 mm 22.1° 1007.8 hPa 7.0 m/s 0.0 mm 25.7° 1007.3 hPa 7.3 m/s
20:00 20.4° 1007.0 hPa 5.4 m/s 0.0 mm 21.5° 1006.9 hPa 6.5 m/s 0.2 mm 21.0° 1007.0 hPa 4.4 m/s 0.1 mm 19.6° 1008.0 hPa 5.4 m/s 0.0 mm 22.0° 1007.5 hPa 6.2 m/s
23:00 18.5° 1007.2 hPa 4.3 m/s 0.8 mm 17.2° 1007.2 hPa 2.5 m/s 0.2 mm 18.6° 1006.9 hPa 3.3 m/s 1.9 mm 18.7° 1008.4 hPa 4.5 m/s 0.0 mm 19.2° 1007.6 hPa 2.7 m/s
 07:05     21:17    Daglengte: 14:12 Morgen
02:00 18.5° 1006.6 hPa 4.3 m/s 2.3 mm 18.2° 1006.2 hPa 2.5 m/s 0.3 mm 19.1° 1006.3 hPa 3.9 m/s 3.1 mm 18.2° 1007.7 hPa 4.3 m/s 0.0 mm 17.5° 1006.7 hPa 2.6 m/s
05:00 18.5° 1006.1 hPa 4.6 m/s 0.0 mm 15.7° 1005.2 hPa 2.3 m/s 0.5 mm 19.1° 1006.1 hPa 3.8 m/s 0.0 mm 18.8° 1006.9 hPa 5.0 m/s 0.0 mm 16.8° 1006.2 hPa 2.9 m/s
08:00 18.7° 1006.0 hPa 4.1 m/s 0.0 mm 16.8° 1005.8 hPa 1.4 m/s 0.6 mm 19.1° 1005.7 hPa 3.5 m/s 0.0 mm 19.3° 1006.7 hPa 5.0 m/s 0.0 mm 17.3° 1006.2 hPa 2.9 m/s
11:00 21.5° 1006.6 hPa 5.0 m/s 0.0 mm 22.5° 1005.7 hPa 4.0 m/s 0.7 mm 21.7° 1006.6 hPa 5.2 m/s 0.0 mm 21.8° 1007.0 hPa 5.3 m/s 0.0 mm 22.8° 1006.3 hPa 5.2 m/s
14:00 24.7° 1006.6 hPa 5.2 m/s 0.0 mm 26.0° 1005.0 hPa 5.1 m/s 0.8 mm 25.1° 1006.4 hPa 4.8 m/s 0.0 mm 25.3° 1006.9 hPa 5.5 m/s 0.0 mm 26.5° 1005.9 hPa 4.9 m/s
17:00 24.1° 1006.3 hPa 5.4 m/s 0.0 mm 24.8° 1005.0 hPa 7.5 m/s 0.8 mm 23.9° 1006.5 hPa 4.9 m/s 0.0 mm 26.0° 1005.6 hPa 6.6 m/s 0.0 mm 26.7° 1005.6 hPa 6.9 m/s
20:00 21.9° 1006.3 hPa 5.1 m/s 0.0 mm 21.1° 1005.6 hPa 6.5 m/s 0.8 mm 21.8° 1006.5 hPa 4.2 m/s 0.0 mm 22.9° 1005.3 hPa 5.8 m/s 0.0 mm 21.9° 1006.3 hPa 6.0 m/s
23:00 19.5° 1007.0 hPa 2.9 m/s 0.0 mm 18.8° 1006.3 hPa 3.6 m/s 0.8 mm 19.5° 1007.0 hPa 1.8 m/s 0.0 mm 20.3° 1006.4 hPa 3.7 m/s 0.0 mm 17.6° 1006.9 hPa 2.7 m/s
 07:06     21:15    Daglengte: 14:09 Dinsdag 16 Aug
02:00 18.7° 1006.8 hPa 3.1 m/s 0.0 mm 18.1° 1006.3 hPa 1.5 m/s 0.8 mm 18.4° 1006.9 hPa 2.2 m/s 0.0 mm 18.7° 1005.3 hPa 3.4 m/s 0.0 mm 17.5° 1006.8 hPa 1.7 m/s
05:00 18.7° 1005.8 hPa 3.8 m/s 0.0 mm 18.5° 1005.5 hPa 3.4 m/s 0.9 mm 18.1° 1006.1 hPa 2.5 m/s 0.0 mm 19.1° 1003.6 hPa 5.9 m/s 0.0 mm 17.5° 1005.8 hPa 3.6 m/s
08:00 18.3° 1005.7 hPa 3.6 m/s 0.5 mm 18.8° 1005.2 hPa 4.9 m/s 1.4 mm 18.5° 1005.9 hPa 3.4 m/s 0.4 mm 17.9° 1004.1 hPa 3.3 m/s 0.0 mm 16.8° 1006.7 hPa 5.8 m/s
11:00 19.9° 1006.4 hPa 5.2 m/s 0.6 mm 21.3° 1005.8 hPa 5.7 m/s 1.7 mm 20.0° 1006.4 hPa 4.3 m/s 0.3 mm 19.7° 1007.2 hPa 6.2 m/s
14:00 22.8° 1006.4 hPa 6.1 m/s 1.0 mm 24.1° 1005.8 hPa 5.4 m/s 2.4 mm 23.2° 1006.2 hPa 6.2 m/s 0.1 mm 23.6° 1007.6 hPa 6.2 m/s
17:00 24.5° 1005.6 hPa 6.2 m/s 0.6 mm 25.6° 1005.4 hPa 6.4 m/s 4.5 mm 24.5° 1005.5 hPa 5.9 m/s 0.0 mm 26.2° 1007.0 hPa 7.4 m/s
20:00 22.5° 1005.6 hPa 5.4 m/s 0.0 mm 22.5° 1005.5 hPa 5.4 m/s 5.0 mm 22.4° 1005.3 hPa 4.8 m/s 0.0 mm 22.5° 1006.9 hPa 5.5 m/s
23:00 18.3° 1007.0 hPa 2.9 m/s 1.5 mm 16.5° 1007.0 hPa 2.6 m/s 5.1 mm 18.4° 1006.5 hPa 2.5 m/s 1.2 mm 16.8° 1008.4 hPa 2.8 m/s
 07:07     21:14    Daglengte: 14:07 Woensdag 17 Aug
02:00 17.5° 1006.9 hPa 3.1 m/s 1.8 mm 16.3° 1006.9 hPa 1.5 m/s 5.2 mm 17.7° 1005.9 hPa 3.3 m/s 1.8 mm 16.0° 1008.6 hPa 2.7 m/s
05:00 17.0° 1006.2 hPa 2.5 m/s 1.3 mm 15.5° 1006.2 hPa 1.5 m/s 5.6 mm 17.6° 1005.1 hPa 2.6 m/s 0.2 mm 15.7° 1007.9 hPa 2.5 m/s
08:00 17.2° 1005.7 hPa 2.2 m/s 2.6 mm 15.8° 1006.5 hPa 1.0 m/s 5.8 mm 17.6° 1005.5 hPa 2.5 m/s 1.0 mm 16.3° 1008.2 hPa 1.1 m/s
11:00 19.6° 1006.5 hPa 1.7 m/s 2.4 mm 19.3° 1008.1 hPa 1.1 m/s 5.9 mm 19.6° 1006.1 hPa 1.8 m/s 0.6 mm 19.5° 1008.4 hPa 4.1 m/s
14:00 22.9° 1007.0 hPa 2.4 m/s 2.4 mm 23.7° 1007.7 hPa 3.3 m/s 6.7 mm 22.8° 1006.8 hPa 2.2 m/s 0.3 mm 18.6° 1008.3 hPa 0.4 m/s
17:00 18.4° 1009.4 hPa 5.5 m/s 22.5 mm 18.4° 1009.4 hPa 5.5 m/s 22.5 mm
20:00 18.7° 1010.0 hPa 2.8 m/s 22.9 mm 18.7° 1010.0 hPa 2.8 m/s 22.9 mm
23:00 16.3° 1012.3 hPa 2.7 m/s 22.9 mm 16.3° 1012.3 hPa 2.7 m/s 22.9 mm
 07:09     21:12    Daglengte: 14:03 Donderdag 18 Aug
02:00 15.3° 1012.9 hPa 2.6 m/s 23.1 mm 15.3° 1012.9 hPa 2.6 m/s 23.1 mm
05:00 14.5° 1013.4 hPa 3.0 m/s 23.3 mm 14.5° 1013.4 hPa 3.0 m/s 23.3 mm
08:00 14.6° 1014.2 hPa 2.6 m/s 23.3 mm 14.6° 1014.2 hPa 2.6 m/s 23.3 mm
11:00 20.8° 1015.2 hPa 3.5 m/s 23.3 mm 20.8° 1015.2 hPa 3.5 m/s 23.3 mm
14:00 25.9° 1014.8 hPa 3.7 m/s 23.3 mm 25.9° 1014.8 hPa 3.7 m/s 23.3 mm
17:00 24.6° 1015.0 hPa 6.7 m/s 23.3 mm 24.6° 1015.0 hPa 6.7 m/s 23.3 mm
20:00 22.8° 1016.2 hPa 6.3 m/s 23.5 mm 22.8° 1016.2 hPa 6.3 m/s 23.5 mm
23:00 18.2° 1018.3 hPa 5.6 m/s 23.5 mm 18.2° 1018.3 hPa 5.6 m/s 23.5 mm
 07:10     21:10    Daglengte: 14:00 Vrijdag 19 Aug
02:00 15.5° 1019.8 hPa 3.8 m/s 23.5 mm 15.5° 1019.8 hPa 3.8 m/s 23.5 mm
05:00 14.3° 1019.8 hPa 2.9 m/s 23.5 mm 14.3° 1019.8 hPa 2.9 m/s 23.5 mm
08:00 14.6° 1020.7 hPa 2.1 m/s 23.5 mm 14.6° 1020.7 hPa 2.1 m/s 23.5 mm
11:00 21.1° 1021.3 hPa 3.1 m/s 23.5 mm 21.1° 1021.3 hPa 3.1 m/s 23.5 mm
14:00 25.4° 1020.7 hPa 3.9 m/s 23.5 mm 25.4° 1020.7 hPa 3.9 m/s 23.5 mm
17:00 24.9° 1020.5 hPa 4.8 m/s 23.9 mm 24.9° 1020.5 hPa 4.8 m/s 23.9 mm
20:00 22.9° 1020.9 hPa 4.6 m/s 24.2 mm 22.9° 1020.9 hPa 4.6 m/s 24.2 mm
23:00 18.0° 1022.3 hPa 2.7 m/s 24.2 mm 18.0° 1022.3 hPa 2.7 m/s 24.2 mm
 07:11     21:08    Daglengte: 13:57 Zaterdag 20 Aug
02:00 16.4° 1023.1 hPa 3.6 m/s 24.2 mm 16.4° 1023.1 hPa 3.6 m/s 24.2 mm
05:00 15.8° 1023.6 hPa 2.9 m/s 24.2 mm 15.8° 1023.6 hPa 2.9 m/s 24.2 mm
08:00 13.9° 1024.4 hPa 2.6 m/s 24.2 mm 13.9° 1024.4 hPa 2.6 m/s 24.2 mm
11:00 20.6° 1025.0 hPa 3.2 m/s 24.2 mm 20.6° 1025.0 hPa 3.2 m/s 24.2 mm
14:00 25.4° 1024.3 hPa 3.3 m/s 24.2 mm 25.4° 1024.3 hPa 3.3 m/s 24.2 mm
17:00 27.7° 1022.9 hPa 3.2 m/s 24.2 mm 27.7° 1022.9 hPa 3.2 m/s 24.2 mm
20:00 25.2° 1022.9 hPa 3.9 m/s 24.2 mm 25.2° 1022.9 hPa 3.9 m/s 24.2 mm
23:00 17.6° 1024.3 hPa 5.0 m/s 24.2 mm 17.6° 1024.3 hPa 5.0 m/s 24.2 mm
 07:13     21:07    Daglengte: 13:54 Zondag 21 Aug
02:00 14.9° 1024.3 hPa 3.6 m/s 24.2 mm 14.9° 1024.3 hPa 3.6 m/s 24.2 mm
05:00 14.0° 1023.9 hPa 3.5 m/s 24.2 mm 14.0° 1023.9 hPa 3.5 m/s 24.2 mm
08:00 14.3° 1023.8 hPa 3.1 m/s 24.2 mm 14.3° 1023.8 hPa 3.1 m/s 24.2 mm
11:00 22.6° 1023.3 hPa 3.2 m/s 24.2 mm 22.6° 1023.3 hPa 3.2 m/s 24.2 mm
14:00 28.0° 1021.7 hPa 2.9 m/s 24.2 mm 28.0° 1021.7 hPa 2.9 m/s 24.2 mm
20:00 25.8° 1019.0 hPa 3.8 m/s 24.2 mm 25.8° 1019.0 hPa 3.8 m/s 24.2 mm
 07:14     21:05    Daglengte: 13:51 Maandag 22 Aug
02:00 16.5° 1018.7 hPa 3.2 m/s 24.2 mm 16.5° 1018.7 hPa 3.2 m/s 24.2 mm
08:00 15.5° 1017.7 hPa 2.9 m/s 24.2 mm 15.5° 1017.7 hPa 2.9 m/s 24.2 mm
14:00 28.2° 1015.9 hPa 2.7 m/s 24.2 mm 28.2° 1015.9 hPa 2.7 m/s 24.2 mm
20:00 26.0° 1013.4 hPa 4.9 m/s 24.2 mm 26.0° 1013.4 hPa 4.9 m/s 24.2 mm
 07:15     21:03    Daglengte: 13:48 Dinsdag 23 Aug
02:00 16.8° 1013.5 hPa 2.9 m/s 24.2 mm 16.8° 1013.5 hPa 2.9 m/s 24.2 mm
08:00 17.8° 1013.0 hPa 2.3 m/s 24.2 mm 17.8° 1013.0 hPa 2.3 m/s 24.2 mm
14:00 27.0° 1012.2 hPa 3.9 m/s 24.2 mm 27.0° 1012.2 hPa 3.9 m/s 24.2 mm
20:00 23.0° 1012.2 hPa 4.7 m/s 24.2 mm 23.0° 1012.2 hPa 4.7 m/s 24.2 mm
 07:16     21:01    Daglengte: 13:45 Woensdag 24 Aug
02:00 17.3° 1013.5 hPa 2.3 m/s 24.2 mm 17.3° 1013.5 hPa 2.3 m/s 24.2 mm
08:00 16.7° 1016.8 hPa 1.6 m/s 0.0 mm
14:00 28.8° 1016.5 hPa 1.0 m/s 0.0 mm
20:00 26.5° 1015.8 hPa 2.5 m/s 0.1 mm
 07:18     20:59    Daglengte: 13:41 Donderdag 25 Aug
02:00 18.1° 1017.4 hPa 2.6 m/s 0.1 mm
08:00 16.5° 1017.7 hPa 2.1 m/s 0.1 mm
14:00 28.8° 1017.6 hPa 1.4 m/s 0.2 mm
20:00 26.8° 1016.8 hPa 3.1 m/s 0.2 mm
 07:19     20:57    Daglengte: 13:38 Vrijdag 26 Aug
02:00 18.0° 1018.3 hPa 3.2 m/s 0.2 mm
08:00 16.4° 1018.5 hPa 2.3 m/s 0.0 mm
14:00 29.4° 1018.1 hPa 1.5 m/s 0.1 mm
20:00 26.9° 1017.1 hPa 3.3 m/s 0.0 mm
 07:20     20:55    Daglengte: 13:35 Zaterdag 27 Aug
02:00 18.2° 1018.9 hPa 2.5 m/s 0.0 mm
08:00 16.6° 1019.0 hPa 2.3 m/s 0.0 mm
14:00 28.8° 1018.5 hPa 2.1 m/s 0.1 mm
20:00 27.0° 1017.2 hPa 3.3 m/s 0.2 mm
 07:22     20:53    Daglengte: 13:31 Zondag 28 Aug
02:00 18.1° 1018.8 hPa 2.9 m/s 0.3 mm
08:00 16.4° 1018.6 hPa 2.4 m/s 0.1 mm
14:00 28.2° 1018.0 hPa 2.3 m/s 0.3 mm
20:00 26.0° 1017.1 hPa 2.7 m/s 0.4 mm
 07:23     20:52    Daglengte: 13:29 Maandag 29 Aug
02:00 17.9° 1018.8 hPa 3.1 m/s 0.2 mm
08:00 15.6° 1018.7 hPa 2.7 m/s 0.0 mm
FMI Hirlam - 7.5 km EWN WRFDA - 12 km DWD ICON - 7 km GFS - 25 km Basiskaart






























































Updatetijd (Europe/Brussels) Resolutie Lengte Stap
FMI Hirlam 07:15, 13:15, 19:15, 01:15 7.5 km 49h 1h
EWN WRFDA 10:15, 16:15, 22:15, 04:15 12 km 73h 1h
DWD ICON 11:45, 17:45, 23:45, 05:45 7 km 75h 1h
GFS 08:15, 14:15, 20:15, 02:15 25 km 237h 3h
30+ mm
25-30 mm
20-25 mm
15-20 mm
10-15 mm
6-10 mm
4-6 mm
2-4 mm
1-2 mm
0.5-1 mm
0.2-0.5 mm
0.1-0.2 mm
30+ mm
25-30 mm
20-25 mm
15-20 mm
10-15 mm
6-10 mm
4-6 mm
2-4 mm
1-2 mm
0.5-1 mm
0.2-0.5 mm
0.1-0.2 mm
Sneeuwval
Natte sneeuw
Hagel
Vorst
30+ mm
25-30 mm
20-25 mm
15-20 mm
10-15 mm
6-10 mm
4-6 mm
2-4 mm
1-2 mm
0.5-1 mm
0.2-0.5 mm
0.1-0.2 mm
Sneeuwval
Natte sneeuw
Hagel
Vorst
Onweer
50 mm
40 mm
30 mm
26 mm
22 mm
18 mm
14 mm
10 mm
9 mm
8 mm
7 mm
6 mm
5 mm
4.5 mm
4 mm
3.5 mm
3 mm
2.5 mm
2 mm
1.5 mm
1 mm
0.8 mm
0.6 mm
0.4 mm
0.2 mm
0.05 mm
35°
30°
25°
20°
15°
10°
-5°
-10°
-15°
-20°
-25°
-30°
-35°
33> m/s
29 m/s
25 m/s
21 m/s
17 m/s
14 m/s
11 m/s
8 m/s
5 m/s
3 m/s
0 m/s
2600 J/kg
2400 J/kg
2200 J/kg
2000 J/kg